Simultaneous Nadir Overpasses (SNOs) Predictions

Prediction of SNOs between AQUA and GOES-15 Satellite Orbit:

Table of predicted SNOs for the next 14.0 days since TLE Epoch: 6/30/2012
Index Date Time (AQUA) AQUA Lat,Lon GOES-15 Lat,Lon Distance(km) Time Diff (sec)
1 06/30/2012 10:50:25 0.51,-138.65 -0.23,-135.21 390.89 80
2 07/02/2012 10:38:15 -0.12,-135.70 -0.24,-135.25 51.97 80
3 07/04/2012 10:26:05 -0.76,-132.75 -0.24,-135.28 286.72 80
4 07/04/2012 22:47:30 -0.31,-137.95 0.26,-135.28 304.47 80
5 07/06/2012 22:35:20 0.35,-135.01 0.26,-135.31 34.29 80
6 07/08/2012 22:23:09 0.95,-132.05 0.26,-135.33 372.72 80
7 07/09/2012 10:44:25 0.14,-137.22 -0.27,-135.35 212.36 80
8 07/11/2012 10:32:15 -0.53,-134.27 -0.27,-135.37 125.56 80
9 07/11/2012 22:53:39 -0.59,-139.46 0.29,-135.37 466.20 80
10 07/13/2012 10:20:04 -1.15,-131.32 -0.28,-135.39 462.80 80
11 07/13/2012 22:41:28 0.04,-136.51 0.29,-135.38 129.05 80




NCC Satellite Simultaneous Nadir Overpasses (SNOs) Prediction Service
